Location: Columbia
(38.9520°N, 92.3340°W)
Time: 00:53:37
(UTC-05:00)

ISS - Visible Passes

Search period start: 24 October 2017 00:00
Search period end: 03 November 2017 00:00
Orbit: 400 x 408 km, 51.6° (Epoch: 24 October)

Date Brightness Start Highest point End Pass type
(mag) Time Alt. Az. Time Alt. Az. Time Alt. Az.
28 Oct -0.7 06:12:15 10° SSE 06:13:42 12° SE 06:15:10 10° ESE visible
29 Oct -3.4 06:54:11 10° SW 06:57:24 65° SE 07:00:37 10° ENE visible
30 Oct -2.1 06:02:45 14° SSW 06:05:04 31° SE 06:07:59 10° ENE visible
31 Oct -0.8 05:13:25 15° ESE 05:13:25 15° ESE 05:14:51 10° E visible
31 Oct -3.6 06:46:07 12° WSW 06:48:59 49° NW 06:52:09 10° NE visible
01 Nov -3.9 05:56:31 84° SE 05:56:31 84° SE 05:59:47 10° NE visible
02 Nov -0.5 05:06:44 13° ENE 05:06:44 13° ENE 05:07:11 10° ENE visible
02 Nov -2.5 06:39:24 19° WNW 06:40:40 24° NNW 06:43:25 10° NNE visible
